TimePDT,TemperatureF,Dew PointF,Humidity,Sea Level PressureIn,VisibilityMPH,Wind Direction,Wind SpeedMPH,Gust SpeedMPH,PrecipitationIn,Events,Conditions,WindDirDegrees,DateUTC
12:03 AM,46.4,44.6,93,30.12,10.0,North,-9999.0,-,N/A,,Overcast,0,2011-10-21 07:03:00
12:13 AM,46.4,46.4,100,30.12,10.0,SSE,2.3,-,N/A,,Overcast,160,2011-10-21 07:13:00
12:58 AM,48.4,48.0,99,30.16,10.0,East,3.5,-,N/A,,Overcast,80,2011-10-21 07:58:00
1:38 AM,48.2,48.2,100,30.12,1.5,ESE,3.5,-,N/A,,Overcast,110,2011-10-21 08:38:00
1:43 AM,48.2,48.2,100,30.12,1.0,East,2.3,-,N/A,,Mist,100,2011-10-21 08:43:00
1:48 AM,48.2,48.2,100,30.12,1.8,East,1.2,-,N/A,,Overcast,90,2011-10-21 08:48:00
1:53 AM,50.0,48.2,94,30.12,1.5,East,2.3,-,N/A,,Overcast,100,2011-10-21 08:53:00
1:58 AM,50.0,48.2,94,30.17,1.0,East,1.2,-,N/A,,Mist,90,2011-10-21 08:58:00
2:03 AM,50.0,48.2,94,30.11,0.5,East,1.2,-,N/A,Fog,Fog,100,2011-10-21 09:03:00
2:08 AM,50.0,48.2,94,30.12,0.5,North,-9999.0,-,N/A,Fog,Fog,0,2011-10-21 09:08:00
2:13 AM,48.2,48.2,100,30.12,0.5,SSE,1.2,-,N/A,Fog,Fog,160,2011-10-21 09:13:00
2:23 AM,48.2,48.2,100,30.12,0.5,North,-9999.0,-,N/A,Fog,Fog,0,2011-10-21 09:23:00
2:28 AM,48.2,48.2,100,30.12,0.8,WSW,1.2,-,N/A,,Mostly Cloudy,240,2011-10-21 09:28:00
2:33 AM,50.0,48.2,94,30.12,1.5,North,-9999.0,-,N/A,,Mostly Cloudy,0,2011-10-21 09:33:00
2:38 AM,50.0,48.2,94,30.12,1.5,North,-9999.0,-,N/A,,Mostly Cloudy,0,2011-10-21 09:38:00
2:43 AM,50.0,48.2,94,30.12,1.0,North,-9999.0,-,N/A,,Mostly Cloudy,0,2011-10-21 09:43:00
2:53 AM,50.0,48.2,94,30.12,1.2,WNW,1.2,-,N/A,,Mostly Cloudy,290,2011-10-21 09:53:00
2:58 AM,50.0,50.0,100,30.17,2.0,West,2.3,-,N/A,,Mostly Cloudy,280,2011-10-21 09:58:00
3:03 AM,50.0,50.0,100,30.12,3.0,WSW,2.3,-,N/A,,Mostly Cloudy,250,2011-10-21 10:03:00
3:08 AM,50.0,50.0,100,30.12,4.0,WSW,2.3,-,N/A,,Overcast,240,2011-10-21 10:08:00
3:48 AM,50.0,50.0,100,30.12,5.0,South,2.3,-,N/A,,Overcast,180,2011-10-21 10:48:00
3:58 AM,49.8,49.5,99,30.17,7.0,SSE,3.5,-,N/A,,Overcast,150,2011-10-21 10:58:00
4:58 AM,48.7,48.6,99,30.17,9.0,SSE,2.3,-,N/A,,Mostly Cloudy,160,2011-10-21 11:58:00
5:59 AM,49.1,48.9,99,30.18,10.0,SSE,3.5,-,N/A,,Overcast,160,2011-10-21 12:59:00
6:36 AM,50.0,48.2,94,30.13,10.0,SW,3.5,-,N/A,,Overcast,220,2011-10-21 13:36:00
6:58 AM,51.4,51.3,99,30.17,10.0,SW,5.8,-,N/A,,Overcast,230,2011-10-21 13:58:00
7:33 AM,51.8,51.8,100,30.13,10.0,SW,6.9,-,N/A,,Overcast,230,2011-10-21 14:33:00
7:58 AM,53.6,51.1,91,30.18,10.0,SW,5.8,-,N/A,,Overcast,230,2011-10-21 14:58:00
8:22 AM,55.4,50.0,82,30.15,10.0,SW,11.5,-,N/A,Rain,Light Rain,220,2011-10-21 15:22:00
8:40 AM,55.4,51.8,88,30.14,10.0,SW,8.1,-,N/A,,Overcast,220,2011-10-21 15:40:00
8:58 AM,55.0,51.3,87,30.19,10.0,SW,6.9,-,0.00,,Overcast,230,2011-10-21 15:58:00
9:04 AM,55.4,51.8,88,30.16,10.0,SW,6.9,-,N/A,Rain,Light Rain,220,2011-10-21 16:04:00
9:34 AM,55.4,51.8,88,30.16,10.0,SW,10.4,-,N/A,,Overcast,220,2011-10-21 16:34:00
9:39 AM,55.4,51.8,88,30.16,10.0,SSW,8.1,-,N/A,Rain,Light Rain,210,2011-10-21 16:39:00
9:58 AM,55.2,52.0,89,30.21,10.0,SW,9.2,-,0.01,Rain,Light Rain,230,2011-10-21 16:58:00
10:23 AM,55.4,51.8,88,30.17,6.0,SSW,10.4,-,N/A,,Overcast,200,2011-10-21 17:23:00
10:40 AM,55.4,53.6,94,30.17,7.0,SSW,8.1,-,N/A,Rain,Light Rain,200,2011-10-21 17:40:00
10:58 AM,54.9,52.9,93,30.22,10.0,SW,8.1,-,0.02,Rain,Light Rain,220,2011-10-21 17:58:00
10:59 AM,55.4,53.6,94,30.18,10.0,SW,8.1,-,N/A,,Mostly Cloudy,220,2011-10-21 17:59:00
11:00 AM,55.4,53.6,94,30.18,10.0,SW,8.1,-,N/A,Rain,Light Rain,220,2011-10-21 18:00:00
11:31 AM,55.4,53.6,94,30.18,10.0,SW,9.2,-,N/A,,Overcast,220,2011-10-21 18:31:00
11:47 AM,55.4,53.6,94,30.18,10.0,SSW,8.1,-,N/A,Rain,Light Rain,210,2011-10-21 18:47:00
11:56 AM,55.4,53.6,94,30.18,10.0,SSW,6.9,-,N/A,,Overcast,200,2011-10-21 18:56:00
11:58 AM,55.8,52.7,89,30.22,10.0,SSW,6.9,-,0.01,,Overcast,200,2011-10-21 18:58:00
12:58 PM,59.0,52.3,79,30.22,10.0,South,10.4,-,0.00,,Overcast,190,2011-10-21 19:58:00
1:33 PM,59.0,51.8,77,30.17,10.0,South,13.8,-,N/A,,Overcast,180,2011-10-21 20:33:00
1:43 PM,59.0,51.8,77,30.17,10.0,South,11.5,-,N/A,,Overcast,170,2011-10-21 20:43:00
1:58 PM,59.5,51.8,76,30.21,10.0,South,10.4,-,N/A,,Mostly Cloudy,170,2011-10-21 20:58:00
2:28 PM,59.0,51.8,77,30.17,10.0,South,13.8,-,N/A,,Overcast,190,2011-10-21 21:28:00
2:58 PM,58.8,51.6,77,30.21,10.0,South,12.7,-,N/A,,Overcast,180,2011-10-21 21:58:00
3:09 PM,59.0,51.8,77,30.17,10.0,South,10.4,-,N/A,Rain,Light Rain,180,2011-10-21 22:09:00
3:54 PM,57.2,53.6,88,30.18,10.0,South,10.4,-,N/A,,Overcast,190,2011-10-21 22:54:00
3:58 PM,57.0,53.2,87,30.22,10.0,South,9.2,-,0.01,,Overcast,180,2011-10-21 22:58:00
4:13 PM,57.2,53.6,88,30.19,10.0,South,9.2,-,N/A,,Overcast,180,2011-10-21 23:13:00
4:58 PM,56.8,53.4,88,30.24,10.0,South,12.7,-,N/A,,Overcast,180,2011-10-21 23:58:00
5:06 PM,57.2,53.6,88,30.20,9.0,South,13.8,-,N/A,Rain,Light Rain,190,2011-10-22 00:06:00
5:31 PM,55.4,53.6,94,30.21,7.0,South,11.5,-,N/A,Rain,Light Rain,180,2011-10-22 00:31:00
5:41 PM,55.4,53.6,94,30.21,8.0,South,10.4,-,N/A,Rain,Light Rain,180,2011-10-22 00:41:00
5:55 PM,55.4,55.4,100,30.21,10.0,South,9.2,-,N/A,,Overcast,170,2011-10-22 00:55:00
5:58 PM,55.4,55.4,100,30.25,10.0,South,9.2,-,0.01,,Overcast,170,2011-10-22 00:58:00
5:59 PM,55.4,55.4,100,30.21,9.0,South,9.2,-,N/A,Rain,Light Rain,170,2011-10-22 00:59:00
6:34 PM,55.4,55.4,100,30.22,7.0,SE,4.6,-,N/A,Rain,Light Rain,140,2011-10-22 01:34:00
6:35 PM,55.4,55.4,100,30.22,6.0,SSE,5.8,-,N/A,Rain,Light Rain,150,2011-10-22 01:35:00
6:40 PM,55.4,55.4,100,30.22,6.0,SE,5.8,-,N/A,,Light Drizzle,140,2011-10-22 01:40:00
6:45 PM,55.4,55.4,100,30.23,4.0,SSE,5.8,-,N/A,Rain,Light Rain,150,2011-10-22 01:45:00
6:58 PM,54.9,54.5,99,30.27,4.0,SE,5.8,-,0.02,Rain,Light Rain,140,2011-10-22 01:58:00
7:52 PM,55.4,55.4,100,30.23,10.0,SSE,6.9,-,N/A,,Overcast,150,2011-10-22 02:52:00
7:58 PM,55.0,54.7,99,30.27,10.0,South,5.8,-,0.03,,Overcast,170,2011-10-22 02:58:00
8:34 PM,55.4,55.4,100,30.24,10.0,South,6.9,-,N/A,Rain,Light Rain,170,2011-10-22 03:34:00
8:43 PM,55.4,53.6,94,30.23,10.0,South,6.9,-,N/A,,Overcast,170,2011-10-22 03:43:00
8:58 PM,54.7,54.3,99,30.27,10.0,South,6.9,-,0.00,,Overcast,180,2011-10-22 03:58:00
8:59 PM,55.4,53.6,94,30.23,10.0,South,5.8,-,N/A,Rain,Light Rain,180,2011-10-22 03:59:00
9:10 PM,55.4,55.4,100,30.23,10.0,South,6.9,-,N/A,,Overcast,180,2011-10-22 04:10:00
9:30 PM,55.4,53.6,94,30.23,10.0,South,4.6,-,N/A,,Overcast,180,2011-10-22 04:30:00
9:58 PM,54.5,54.1,99,30.27,10.0,SSW,5.8,-,0.00,,Overcast,200,2011-10-22 04:58:00
10:31 PM,55.4,55.4,100,30.23,10.0,SSW,8.1,-,N/A,,Light Drizzle,200,2011-10-22 05:31:00
11:55 PM,55.2,54.9,99,30.25,10.0,SSW,5.8,-,N/A,,Overcast,200,2011-10-22 06:55:00